"Pseudo-MPEC" for P20Qn8D

Created 2019 Aug 19 10:07:04 UT using Find_Orb

Click here for an explanation of pseudo-MPECs

 
 Astrometry: 
     P20Qn8D  C2019 08 07]\wpZ*Pl':a7iXl$1kxN+S/cp6AE\?)pSST)E6D-Mge?kP0DV8)cF52
     P20Qn8D  C2019 08 07GmY84Yt-l$oEXRknPRB=q;cG-W6t@Astrometry]SXrf,%\R]Qx^F52
     P20Qn8D  C2019 08 07Cd4O`,FoG\V$FRt*_,VL85.Es:wiRtSfInrIpAp,QN`x[\eg8kZMF52
     P20Qn8D  C2019 08 07TYnViFPCfy79Ha4rGfF-Lhk0l]Ds7#t_3c_c`KQ8S6_s\G7b5kSyF52
     P20Qn8D  C2019 08 077jw0'T*@gH%*.+F`IdRVTlO69@R(e`\VPYg24K,UM2`\=,v@K(Q%F52
     P20Qn8D  C2019 08 07Npg!J@b,wm?Y-iec=wISn/)i41@:`d'Uf+v)kMv1k/rZt[QL^^tHF52
     P20Qn8D  C2019 08 07gc\S]Pm8:tm[ZCdKp:6aIcvCxMo]2D_S-A,ELy]@NP!bte3D%$,NF52
     P20Qn8D KC2019 08 08g(Le/uu?aO']5L/5cO=9+%gpl2PprX7^WcZY_yuhZ2#`ulI$cc/hH21
     P20Qn8D KC2019 08 08*[p0+hBwB'T,agE:guND5I7_NT]C,=X#'cEJ`hQnN8\M,x:['^qPH21
     P20Qn8D KC2019 08 10OVX*Xredacted;pclick'3_uhereoA?=cp17bGdHX*'pU1F1j*C`H21
     P20Qn8D KC2019 08 101;MJ7BL2aCu1U2sVPvVb]X5oXF9bCyM^LwOo$fora0G\BVHo3RkCH21
     P20Qn8D KC2019 08 11:K[s`*Q`Cn)BABH?qqCY(D;J!sexplanationhpe116l^wvi7s]AH21
     P20Qn8D KC2019 08 11;%=x45uGq?=At[ob+ZNJ@T!qD9D'4`,QX*?GYA?y^:ss/\$i0u:*H21
     P20Qn8D KC2019 08 11)oUM./B:oMLTGs3h82S`SB1,,`jjo=XTTHv(tP)GcK`PQm6^/2ooH21

Station data:
(F52) Pan-STARRS 2, Haleakala  (N20.707384 W156.255910)  US/Hawaii. 1.8-m
   Ritchey-Chrétien + CCD.
(H21) Astronomical Research Observatory, Westfield  (N39.483057 W87.968270)
   US/Illinois. 0.76-m f/3.0 astrograph + CCD.

Orbital elements:  P20Qn8D
   Perihelion 2019 Oct 4.777414 +/- 23.3 TT = 18:39:28 (JD 2458761.277414)
Epoch 2019 Aug 11.0 TT = JDT 2458706.5   Earth MOID: 0.4710   Ma: 0.0699
M 342.46703694 +/- 9                (J2000 ecliptic)          AutoNEOCP
n   0.32007650 +/- 0.0828           Peri.  161.89601 +/- 19
a   2.11657431 +/- 0.365            Node   204.27997 +/- 5.2
e   0.3044082 +/- 0.0847            Incl.    3.92498 +/- 0.027
P   3.08                   H 20.5   G  0.15   U 11.1  
q 1.47227156 +/- 0.0914    Q 2.76087706 +/- 0.803
From 14 observations 2019 Aug. 7-11; mean residual 0".14
Residuals in arcseconds: 
190807 F52  .01-  .12-    190807 F52  .28-  .09-    190810 H21  .03-  .09+    
190807 F52  .18+  .06-    190807 F52  .16+  .05-    190811 H21  .01-  .19-    
190807 F52  .17+  .06+    190808 H21  .15-  .22+    190811 H21  .02+  .05-    
190807 F52  .03-  .17-    190808 H21  .16-  .24+    190811 H21  .04-  .17+    
190807 F52  .19+  .19-    190810 H21  .17+  .17-    

Ephemerides (geocentric):
Date (UTC) HH   RA              Dec         delta   r     elong  mag " sig PA
---- -- -- --  -------------   -----------  ------ ------ -----  --- ---- ---
2019 08 19 10  23 44 16.181   +06 38 54.46  .56661 1.5156 146.1 21.2 20.8 178
2019 08 19 11  23 44 17.123   +06 38 58.12  .56639 1.5155 146.1 21.2 21.1 178
2019 08 19 12  23 44 18.061   +06 39 01.75  .56618 1.5154 146.1 21.2 21.4 178
2019 08 19 13  23 44 18.997   +06 39 05.33  .56597 1.5153 146.2 21.2 21.7 178
2019 08 19 14  23 44 19.929   +06 39 08.88  .56576 1.5153 146.2 21.2 22.0 179
2019 08 19 15  23 44 20.858   +06 39 12.39  .56555 1.5152 146.2 21.2 22.2 179
2019 08 19 16  23 44 21.783   +06 39 15.86  .56533 1.5151 146.3 21.2 22.5 179
2019 08 19 17  23 44 22.706   +06 39 19.29  .56512 1.5150 146.3 21.2 22.8 179
2019 08 19 18  23 44 23.625   +06 39 22.68  .56491 1.5150 146.3 21.2 23.1 179
2019 08 19 19  23 44 24.541   +06 39 26.04  .56470 1.5149 146.4 21.2 23.4   0
2019 08 19 20  23 44 25.453   +06 39 29.35  .56449 1.5148 146.4 21.2 23.7   0
2019 08 19 21  23 44 26.363   +06 39 32.63  .56428 1.5147 146.4 21.2 24.0   0
2019 08 19 22  23 44 27.269   +06 39 35.87  .56407 1.5147 146.5 21.2 24.3   0
2019 08 19 23  23 44 28.172   +06 39 39.07  .56386 1.5146 146.5 21.2 24.6   0
2019 08 20 00  23 44 29.072   +06 39 42.23  .56365 1.5145 146.6 21.2 24.9   0
2019 08 20 01  23 44 29.968   +06 39 45.35  .56344 1.5144 146.6 21.2 25.2   1
2019 08 20 02  23 44 30.861   +06 39 48.43  .56323 1.5144 146.6 21.2 25.5   1
2019 08 20 03  23 44 31.751   +06 39 51.48  .56302 1.5143 146.7 21.2 25.9   1
2019 08 20 04  23 44 32.638   +06 39 54.48  .56281 1.5142 146.7 21.2 26.2   1
2019 08 20 05  23 44 33.522   +06 39 57.45  .56260 1.5142 146.7 21.2 26.5   1
2019 08 20 06  23 44 34.402   +06 40 00.38  .56240 1.5141 146.8 21.2 26.8   2
2019 08 20 07  23 44 35.279   +06 40 03.27  .56219 1.5140 146.8 21.2 27.1   2
2019 08 20 08  23 44 36.153   +06 40 06.12  .56198 1.5139 146.8 21.2 27.5   2
2019 08 20 09  23 44 37.023   +06 40 08.93  .56177 1.5139 146.9 21.2 27.8   2
2019 08 20 10  23 44 37.891   +06 40 11.70  .56156 1.5138 146.9 21.2 28.1   2
2019 08 20 11  23 44 38.755   +06 40 14.43  .56136 1.5137 146.9 21.1 28.5   2
2019 08 20 12  23 44 39.616   +06 40 17.13  .56115 1.5136 147.0 21.1 28.8   3
2019 08 20 13  23 44 40.473   +06 40 19.78  .56094 1.5136 147.0 21.1 29.2   3
2019 08 20 14  23 44 41.328   +06 40 22.40  .56074 1.5135 147.1 21.1 29.5   3
2019 08 20 15  23 44 42.179   +06 40 24.98  .56053 1.5134 147.1 21.1 29.9   3
2019 08 20 16  23 44 43.027   +06 40 27.52  .56032 1.5133 147.1 21.1 30.2   3
2019 08 20 17  23 44 43.871   +06 40 30.02  .56012 1.5133 147.2 21.1 30.6   4
2019 08 20 18  23 44 44.713   +06 40 32.48  .55991 1.5132 147.2 21.1 30.9   4
2019 08 20 19  23 44 45.551   +06 40 34.90  .55971 1.5131 147.2 21.1 31.3   4
2019 08 20 20  23 44 46.386   +06 40 37.28  .55950 1.5130 147.3 21.1 31.7   4
2019 08 20 21  23 44 47.218   +06 40 39.62  .55929 1.5130 147.3 21.1 32.0   4
2019 08 20 22  23 44 48.046   +06 40 41.92  .55909 1.5129 147.3 21.1 32.4   4
2019 08 20 23  23 44 48.871   +06 40 44.19  .55889 1.5128 147.4 21.1 32.8   4
2019 08 21 00  23 44 49.693   +06 40 46.41  .55868 1.5127 147.4 21.1 33.2   5
2019 08 21 01  23 44 50.512   +06 40 48.60  .55848 1.5127 147.4 21.1 33.5   5
2019 08 21 02  23 44 51.327   +06 40 50.74  .55827 1.5126 147.5 21.1 33.9   5
2019 08 21 03  23 44 52.140   +06 40 52.85  .55807 1.5125 147.5 21.1 34.3   5
2019 08 21 04  23 44 52.949   +06 40 54.92  .55786 1.5125 147.6 21.1 34.7   5
2019 08 21 05  23 44 53.754   +06 40 56.95  .55766 1.5124 147.6 21.1 35.1   5
2019 08 21 06  23 44 54.557   +06 40 58.93  .55746 1.5123 147.6 21.1 35.5   6
2019 08 21 07  23 44 55.356   +06 41 00.88  .55725 1.5122 147.7 21.1 35.9   6
2019 08 21 08  23 44 56.152   +06 41 02.79  .55705 1.5122 147.7 21.1 36.3   6
2019 08 21 09  23 44 56.945   +06 41 04.66  .55685 1.5121 147.7 21.1 36.7   6